Dewpoint
25 15 14 15 18 20 22 24 23 23 23 21 21 20 18 18 18 19 22 25 24 18 17 18 19 19 19 19 19 19 18 19 19 20 20 21 21 24 26 28 31 34 35 36 37 38 39 37 37 35 35 35 34 32 31 31 29 28 27 27 27 26 24 25 24 24 26 25 25 25 25 27 26 26 25 25 24 23 23 24 25 27 26 26 26 26
22 15 17 20 19 24 22 22 22 19 23 21 20 18 17 18 13 16 19 24 24 15 15 16 15 13 12 11 8 11 19 17 18 18 19 19 20 21 23 25 26 29 32 31 32 34 36 35 34 33 31 33 32 31 30 30 28 27 27 26 26 24 23 24 23 23 24 25 25 24 23 23 24 25 26 24 23 23 23 24 24 26 26 26 25 26
15 13 17 22 25 23 21 21 21 18 17 20 15 14 12 14 17 15 18 20 22 15 12 12 7 1 -3 -4 -4 -3 3 10 14 17 17 18 19 19 20 23 24 25 26 27 28 30 33 34 33 32 30 30 32 31 29 30 28 26 26 25 25 24 23 23 23 23 22 22 23 22 20 20 19 20 24 23 23 23 23 23 24 25 25 25 25 26
10 17 21 22 21 19 19 19 18 19 19 15 14 9 9 14 3 6 9 16 15 13 11 8 4 1 3 4 4 5 4 4 6 10 16 18 17 18 19 20 22 23 24 24 25 26 28 31 32 31 29 28 29 30 29 29 28 26 26 25 24 24 23 22 23 25 22 21 20 20 19 17 17 16 20 20 20 21 21 21 23 24 24 24 24 25
9 17 18 19 21 19 19 18 16 14 11 16 17 12 10 9 3 4 2 13 17 12 16 11 5 -4 -5 -1 2 5 12 13 13 13 12 15 19 19 20 20 21 21 23 23 23 23 25 28 30 30 30 28 27 28 27 27 28 26 25 25 25 24 23 22 24 24 22 22 21 21 21 20 19 20 18 16 16 18 21 21 21 22 23 23 24 24
10 18 21 18 19 19 18 16 17 14 6 6 13 13 10 8 5 4 8 2 -13 -17 11 3 -13 -8 -5 -1 -2 -5 -1 -1 4 10 11 12 15 18 18 18 20 22 23 23 22 23 24 25 27 29 29 27 26 26 26 26 27 26 25 25 25 25 23 23 22 23 22 22 20 20 19 17 17 17 17 14 14 16 17 19 19 22 23 23 23 23
13 15 17 17 17 17 16 15 17 14 8 -2 5 16 11 8 4 7 2 -3 -12 -21 -6 8 -20 -10 -10 -10 -10 -5 4 5 6 7 6 7 12 16 18 18 18 19 21 22 22 22 22 24 25 27 27 26 26 25 26 25 25 25 25 24 24 24 24 23 22 22 22 21 19 19 18 18 17 16 17 16 15 16 16 19 18 21 23 23 22 23
15 12 17 15 17 17 16 14 15 10 4 6 8 14 9 4 -1 1 8 -6 -10 11 13 11 -2 -9 -5 -7 0 7 8 7 7 7 7 8 9 12 16 18 18 18 18 21 22 21 22 22 23 24 26 25 25 25 25 24 24 24 24 23 23 23 24 23 22 22 21 20 19 19 18 19 18 16 16 16 16 17 19 17 18 19 21 22 22 22
12 12 13 16 14 14 12 13 14 11 3 7 10 13 5 4 1 12 9 11 13 1 1 11 14 -1 1 3 6 8 1 -0 2 3 4 6 10 11 14 17 18 18 18 19 21 21 21 22 22 23 24 24 25 24 24 23 22 23 23 23 22 22 23 23 22 22 20 23 19 19 19 18 19 17 18 20 22 19 22 17 17 17 18 21 22 22
13 12 15 17 12 10 13 15 14 9 2 9 16 18 18 18 18 16 12 10 7 -3 -3 3 7 -7 -0 2 0 -3 2 1 3 5 6 7 9 13 16 16 17 18 19 19 20 21 21 21 22 22 23 23 23 24 24 23 22 22 22 22 21 21 22 22 21 22 21 20 21 19 18 18 18 20 20 20 20 19 21 17 17 17 17 18 20 21
15 28 24 16 11 7 14 15 17 13 9 20 17 11 7 14 17 16 14 7 2 -7 -1 -3 9 -4 -4 -3 -5 -6 -1 6 6 7 8 11 13 15 17 17 18 19 19 20 20 20 21 21 21 23 23 23 23 23 22 23 21 21 21 21 21 20 20 21 21 22 21 20 20 19 18 18 18 19 19 19 19 18 18 17 17 17 17 17 18 18
18 16 13 16 22 16 15 15 19 18 18 12 5 -1 -17 -3 6 7 5 6 -5 -3 2 3 8 0 -7 -2 -3 2 5 11 7 2 1 3 5 10 14 18 19 19 20 21 21 21 21 21 20 22 23 22 22 22 22 22 22 21 21 21 21 20 20 20 21 21 21 21 20 19 18 18 18 19 18 18 18 18 18 17 18 18 17 17 17 17
9 15 16 20 28 14 12 3 2 18 15 6 -1 4 -19 -10 -14 -17 -3 -10 -8 -4 0 -2 8 3 1 -5 -3 1 2 4 10 11 5 4 4 6 8 14 18 21 21 22 22 22 22 22 22 22 22 23 23 22 22 21 21 21 21 20 20 20 20 20 20 20 20 20 20 19 18 18 19 19 18 18 17 18 18 18 18 17 17 17 16 16
-5 15 17 17 11 18 3 -9 -18 -1 10 -2 -13 -3 -10 -22 -19 -21 -9 -8 -10 -2 1 -6 -3 -4 -3 -5 0 2 2 4 6 8 9 8 6 4 6 8 14 20 22 23 24 24 25 25 24 23 23 23 23 22 22 21 22 21 21 20 20 20 20 20 20 20 19 19 19 19 18 18 19 19 18 18 18 18 18 18 18 17 17 17 17 16
-18 1 2 13 6 14 4 -8 -8 -11 6 -2 3 -7 -2 -4 -21 -22 -16 -19 -7 -2 -3 0 -13 -2 -10 5 11 -2 1 3 3 6 7 8 9 9 11 12 14 18 21 24 25 25 25 26 24 24 24 23 23 23 23 22 22 21 20 20 20 20 20 20 21 20 19 19 19 19 19 18 19 19 19 18 18 18 18 17 17 17 16 16 15 15
-13 -7 -2 17 14 12 9 11 14 7 -5 8 8 -3 -6 -5 4 -17 -5 -10 -13 -9 -9 -9 -5 5 -1 2 2 9 5 6 7 6 8 7 7 8 12 15 16 18 21 22 24 25 25 25 25 24 24 24 23 23 23 22 22 21 20 20 20 20 20 21 21 20 20 19 19 19 19 19 19 20 19 19 19 17 17 15 16 14 14 14 12 11
-13 -21 12 18 17 12 10 14 11 -0 -11 -10 -6 -6 4 5 -7 -14 -0 1 -2 -9 -5 -5 -8 -10 -9 -11 -9 -7 -4 -1 6 8 6 9 8 15 18 18 19 20 19 20 23 25 24 24 24 25 24 24 24 23 23 22 22 21 20 20 20 20 20 21 21 21 20 20 20 20 19 19 19 18 17 17 16 13 12 13 11 10 10 8 8 10
-14 -10 4 12 9 13 15 16 16 17 5 -2 -5 -2 10 9 5 1 -12 -8 -13 -10 -10 -7 -6 -3 -7 -6 3 -3 0 7 7 6 7 8 9 10 16 19 20 19 20 20 21 23 23 23 24 24 24 24 24 23 23 22 22 22 21 21 20 20 21 21 22 21 21 20 20 18 17 16 17 16 15 13 11 11 9 8 8 7 8 9 11 11
4 -6 -6 11 13 17 18 15 13 16 14 -7 2 9 -3 -5 -6 1 -2 -13 -16 -13 -7 -4 -2 1 1 2 0 -1 5 7 7 10 8 9 10 11 13 17 18 18 20 21 22 24 24 24 24 24 24 24 24 24 23 22 23 23 22 22 21 21 21 22 22 21 20 18 17 15 14 13 12 11 10 8 10 7 8 7 7 7 10 11 12 12
1 -8 -4 9 12 14 9 7 3 5 15 19 15 6 9 1 4 -6 -0 -2 -1 -7 -14 -3 -7 -5 0 7 6 2 9 7 8 11 12 14 15 14 15 16 18 18 19 21 22 24 25 25 25 24 24 24 24 23 23 23 23 23 23 22 22 22 21 21 20 19 17 15 14 10 8 7 7 8 8 7 7 8 7 7 8 8 10 11 12 11
0 -10 -9 -1 9 8 2 6 2 4 7 8 7 7 2 1 5 8 -2 1 -2 -7 -8 -8 -6 -1 5 7 1 5 11 12 9 11 13 15 17 17 15 16 17 17 16 18 21 23 24 25 25 24 24 24 23 23 23 23 23 22 21 21 20 20 19 18 17 15 14 11 9 7 5 4 8 5 6 6 5 6 7 6 8 9 10 10 11 11
-5 -13 -1 -1 -8 1 -3 5 5 3 2 7 9 8 6 4 -4 -4 -2 4 -1 -5 -2 -11 -6 -2 6 9 5 6 8 10 12 13 13 13 12 11 11 12 15 16 16 16 18 20 23 24 24 24 23 23 23 23 23 22 21 21 19 19 18 17 16 16 13 12 11 7 5 5 5 4 6 3 6 3 5 5 6 7 8 9 10 10 10 11
13 -5 -7 -3 -11 -10 -9 -2 8 5 5 7 6 5 6 8 6 -2 -6 1 -1 4 -2 -2 -4 -2 9 9 6 8 9 9 10 11 12 11 10 9 9 10 10 12 16 18 18 19 22 24 24 24 24 23 23 23 22 21 20 20 18 17 16 15 14 13 10 8 7 5 4 4 4 4 4 4 5 4 4 5 6 7 8 10 10 10 9 9
20 -1 -5 -3 -5 -3 -3 8 8 10 10 5 5 6 4 7 8 4 1 8 4 2 -2 -3 -5 2 6 9 13 14 14 16 15 12 11 11 12 11 11 11 11 11 11 12 17 22 23 24 24 23 24 24 23 22 21 20 19 18 16 15 14 13 11 8 6 4 4 4 2 2 2 2 2 3 3 3 4 5 7 10 10 10 10 9 9 9
-3 7 -7 -4 -0 -1 -6 6 3 4 6 5 5 7 6 6 5 5 5 5 -0 5 3 1 -3 -1 5 17 18 16 14 14 13 12 11 11 11 12 12 12 12 11 11 11 14 17 21 23 23 23 24 23 23 22 20 19 17 15 14 13 12 11 9 6 4 2 2 2 1 2 1 2 3 4 3 3 5 6 9 10 10 10 9 9 9 8
2 8 -5 -5 -3 -4 -5 -6 -5 4 9 3 3 2 5 6 9 4 4 4 2 1 3 -0 1 4 7 16 15 15 15 16 15 14 13 13 13 13 13 13 13 13 14 14 14 15 16 20 21 22 23 23 22 21 19 18 16 13 12 10 10 9 6 4 3 1 1 1 1 4 6 7 6 5 3 4 6 8 10 11 10 10 10 10 8 8
5 12 -0 1 3 -0 3 2 3 7 -2 3 7 5 6 4 10 11 9 5 4 4 4 7 8 7 10 15 15 16 17 17 16 16 14 15 15 14 15 17 18 17 18 18 18 18 16 15 16 18 20 22 21 20 18 16 14 12 10 9 7 7 5 4 2 4 1 2 2 8 4 4 3 5 4 7 9 10 11 11 11 10 9 9 8 8
6 5 7 4 0 1 0 1 3 6 2 1 5 8 9 8 6 8 9 6 10 8 4 8 8 10 13 14 14 17 17 18 18 17 16 17 16 16 18 19 21 18 19 19 20 20 19 18 16 16 16 19 20 18 16 14 13 11 9 8 6 5 5 3 5 6 7 4 5 5 6 4 4 5 8 9 10 10 11 11 10 9 10 10 9 9
8 5 9 7 9 9 7 6 4 4 4 4 5 8 10 10 10 7 9 9 10 8 6 8 10 11 12 12 15 16 17 19 18 17 17 18 17 19 19 18 17 17 18 19 20 21 21 19 19 19 19 18 18 18 16 13 12 10 9 8 6 7 10 5 6 6 5 6 5 4 5 5 7 9 9 9 10 10 10 10 9 10 9 9 9 9
10 9 8 7 8 6 6 7 8 7 7 8 10 10 9 8 9 13 14 15 14 12 13 14 14 13 11 13 15 16 18 19 17 17 18 19 19 20 19 18 17 18 18 19 20 21 21 20 20 20 20 20 19 18 17 14 12 11 9 8 8 6 6 7 5 6 7 5 5 7 7 8 9 9 9 8 8 8 8 8 8 8 9 8 9 9
13 10 13 7 6 10 10 7 7 9 9 8 13 15 14 12 11 16 15 15 15 14 12 11 10 10 11 14 17 17 18 18 16 17 17 20 21 20 19 18 17 18 18 19 20 21 21 20 20 20 20 19 20 20 18 16 14 12 9 8 9 9 6 6 6 5 6 6 8 9 10 9 9 8 7 6 6 7 7 7 7 7 6 7 7 7
8 9 6 4 5 8 9 8 10 11 10 11 12 11 13 14 13 15 13 14 13 12 11 8 8 10 10 13 17 16 16 15 15 17 18 20 21 20 18 17 17 18 18 19 20 21 20 20 20 20 19 19 19 19 19 17 15 13 10 9 10 9 8 8 7 8 9 10 10 10 10 8 8 6 5 5 5 6 6 6 5 5 6 5 4 4
8 5 5 2 5 9 10 11 11 11 10 8 9 10 13 14 15 15 15 15 14 12 10 7 8 14 13 15 16 15 16 16 15 17 17 20 20 19 16 15 16 18 19 20 21 21 20 19 20 19 18 18 17 18 19 18 16 14 12 11 10 9 9 9 9 11 11 11 11 10 9 8 6 5 6 6 5 6 6 5 4 4 4 3 3 2
8 8 6 7 5 10 11 11 12 10 6 6 14 11 12 13 15 12 14 14 15 14 13 14 14 14 13 15 16 15 16 15 16 17 17 21 18 16 15 15 17 19 20 21 21 20 19 20 20 19 18 18 18 18 18 19 18 16 15 13 9 8 10 11 11 11 11 11 10 9 9 7 6 6 6 5 5 5 5 4 4 4 3 3 3 2
11 9 8 6 6 9 9 11 10 6 6 10 16 8 10 11 11 12 15 16 15 15 13 12 13 12 13 15 16 17 17 16 16 15 15 23 17 15 15 16 17 19 19 17 17 18 19 20 19 19 18 18 18 18 19 18 17 16 14 11 10 11 11 11 11 10 10 10 10 9 9 7 6 6 5 5 5 5 4 4 4 4 4 3 2 2
10 10 7 9 5 5 6 5 2 6 9 10 12 9 10 7 9 12 12 16 15 15 13 11 12 11 12 13 14 17 15 14 14 14 15 18 15 15 15 14 17 17 14 15 16 17 17 18 18 18 18 18 18 18 19 18 18 16 15 12 11 10 11 11 10 10 10 10 10 9 9 7 7 6 6 5 5 5 5 4 4 4 4 2 2 1
15 10 8 10 9 9 7 6 10 14 9 6 9 10 10 6 8 10 7 10 14 16 14 12 12 11 11 12 15 15 14 13 12 10 17 14 14 14 14 15 16 13 14 14 15 15 17 18 18 18 18 18 19 19 18 18 18 16 14 11 11 11 10 11 11 11 11 10 10 9 9 8 7 7 6 6 5 5 4 4 4 4 3 2 2 1
16 12 14 12 12 12 11 10 9 8 4 2 10 13 12 10 10 11 14 11 17 15 15 12 11 10 11 11 13 13 11 11 9 9 10 13 14 13 13 14 13 13 14 14 15 17 17 16 17 18 19 19 18 18 18 19 19 16 14 12 12 12 10 10 10 11 11 11 11 10 10 9 8 8 7 6 5 5 5 5 5 4 3 2 1 0
12 15 12 11 12 13 10 7 6 6 7 9 12 13 9 7 10 11 14 8 16 14 14 12 10 10 10 11 11 11 11 9 9 10 11 12 13 12 11 11 12 14 13 13 16 16 15 16 19 19 18 17 17 17 18 19 18 15 13 13 12 11 11 11 11 11 11 11 12 11 10 9 9 8 7 6 6 6 5 5 4 3 3 1 1 1
10 8 10 8 8 10 7 5 3 7 4 11 14 10 6 9 7 12 0 -1 14 14 12 10 8 10 11 11 10 11 11 8 10 10 11 12 13 12 10 10 10 10 11 16 15 15 17 19 17 16 16 16 17 18 19 19 17 15 14 14 13 12 11 11 11 12 12 12 11 10 10 9 9 8 7 7 6 6 5 5 3 2 1 1 1 0
7 6 9 5 8 6 4 -1 -1 4 12 14 12 7 7 7 7 -1 -3 7 14 12 10 9 10 11 9 7 8 7 8 8 9 9 10 13 13 11 10 10 9 10 13 14 13 19 16 15 16 16 16 17 18 18 18 18 16 15 14 14 13 12 12 11 12 12 11 11 10 9 9 9 8 8 7 7 6 6 4 3 3 2 1 0 0 -0
7 7 10 4 3 0 -0 -3 -1 2 12 11 8 6 7 3 -2 -0 12 15 11 9 8 10 10 8 6 6 5 6 7 8 9 11 12 14 13 11 9 8 8 12 13 13 17 16 15 15 15 15 15 16 16 17 17 17 15 15 15 14 12 12 11 11 11 10 10 9 9 8 8 8 8 7 6 6 5 3 2 2 2 2 0 0 -1 -2
7 4 0 1 7 4 -3 -6 -4 -7 6 10 7 6 6 3 3 13 14 11 10 8 10 10 8 6 6 5 5 7 8 8 8 9 11 13 13 10 9 9 12 11 10 13 14 13 15 15 14 14 14 14 15 16 15 15 14 14 14 13 11 11 10 10 9 9 9 8 8 7 7 7 6 6 5 4 3 2 1 0 0 -0 -1 -1 -2 -2
8 2 1 4 8 -5 -4 -6 -3 6 10 10 7 5 7 9 13 13 10 9 10 10 10 8 7 6 5 5 6 7 6 6 6 8 10 11 10 10 10 12 12 9 10 14 13 13 14 13 13 13 13 14 14 14 13 13 12 12 12 11 10 10 9 9 9 8 7 7 6 6 6 5 5 4 3 2 2 1 0 -1 -1 -1 -2 -2 -3 -4
14 6 5 1 6 1 -1 1 6 9 9 10 7 8 10 12 13 10 9 8 8 9 9 7 6 6 6 6 6 6 5 4 5 5 6 7 9 12 12 11 9 9 12 13 13 13 13 12 12 12 12 13 12 12 11 12 11 11 11 10 9 9 8 8 7 7 6 6 5 5 4 4 3 2 2 1 1 -0 -0 -2 -2 -3 -3 -4 -4 -5
12 10 11 8 5 10 7 9 10 9 8 6 8 8 9 10 9 9 8 7 7 8 8 7 7 7 6 6 5 6 6 5 5 5 5 8 12 12 11 9 8 9 12 13 13 12 12 12 11 11 11 11 11 10 10 10 11 10 10 9 9 9 8 7 6 6 5 5 4 4 3 2 1 1 1 0 -0 -0 -1 -2 -3 -3 -4 -5 -5 -5
13 11 10 4 6 5 0 3 5 5 7 8 7 8 9 10 10 9 8 6 6 7 7 8 7 7 7 6 6 6 5 5 5 5 7 11 10 10 10 9 9 10 11 13 13 12 11 11 10 10 10 9 10 10 10 9 10 9 9 8 9 8 7 6 6 5 5 4 4 3 2 1 0 -0 -1 -2 -2 -2 -2 -3 -3 -4 -5 -5 -6 -6
4 12 9 8 7 6 6 7 7 8 9 9 7 5 6 10 10 9 7 6 6 8 8 8 8 7 6 5 5 6 5 5 5 6 8 8 9 11 10 10 10 9 9 13 12 11 10 10 9 9 9 8 9 9 8 8 8 8 8 7 8 7 6 5 5 4 4 3 2 1 1 0 -2 -2 -2 -3 -3 -3 -4 -4 -4 -5 -5 -6 -6 -7
7 11 1 6 6 8 9 8 8 9 9 8 6 7 8 11 12 10 8 7 7 8 8 8 8 7 6 6 5 6 6 6 6 8 7 9 10 10 11 10 9 8 10 13 11 10 10 9 9 8 8 7 8 8 8 8 8 7 7 7 6 6 5 5 3 3 2 2 1 0 -0 -0 -2 -2 -3 -3 -4 -3 -3 -4 -5 -5 -5 -5 -5 -6
8 4 7 8 6 5 6 8 10 6 5 7 7 7 9 14 13 9 7 7 8 9 9 8 8 8 7 6 6 6 7 7 7 7 7 8 9 11 11 9 8 8 11 12 10 10 10 9 7 6 6 7 7 7 7 7 8 6 7 5 5 5 5 3 2 1 1 1 0 -0 -1 -2 -2 -3 -3 -3 -4 -4 -4 -3 -1 -3 -5 -5 -3 -2
6 7 8 5 8 6 10 11 11 11 9 8 7 7 9 11 10 7 8 10 11 10 9 8 8 8 8 7 7 8 7 8 7 7 7 8 10 11 9 7 7 9 11 10 9 9 9 7 6 5 5 5 6 5 5 6 6 6 5 6 4 4 4 3 1 1 1 -0 -1 -1 -2 -2 -3 -3 -4 -3 -3 -4 -4 -5 -3 6 6 2 -1 -1